Roaring Gap, NC (28668)

5:42 AM EST on February 09, 2016 (GMT -0500)
High Country Lights | | Change Station
CLOSE
Current Station
Personal Weather Station
Location: Ennice, NC
Elevation: 2871 ft
Nearby Weather Stations
Active Advisory: Special Statement

Elev 2871 ft 36.51 °N, 80.95 °W | Updated 2 minutes ago

Overcast
Overcast
23.6 °F
Feels Like 13 °F
N
10.0
Wind Variable Wind from WNW
Gusts 10.0 mph

Today
High -- | Low -- °F
--% Chance of Precip.
Yesterday
High -- | Low -- °F
Precip. -- in
Pressure 29.67 in
Visibility 10.0 miles
Clouds Scattered Clouds 6000 ft
Scattered Clouds 9000 ft
Overcast 11000 ft
Windchill 13 °F
Dew Point 20 °F
Humidity 87%
Rainfall 0.00 in
Snow Depth Not available.
7:18 AM 5:58 PM
New Moon, 1% visible
METAR KUKF 091015Z AUTO 29003KT 10SM SCT060 SCT090 OVC110 00/M07 A2967 RMK AO2
Pressure 29.67 in
Visibility 10.0 miles
Clouds Scattered Clouds 6000 ft
Scattered Clouds 9000 ft
Overcast 11000 ft
Windchill 13 °F
Dew Point 20 °F
Humidity 87%
Rainfall 0.00 in
Snow Depth Not available.
7:18 AM 5:58 PM
New Moon, 1% visible
METAR KUKF 091015Z AUTO 29003KT 10SM SCT060 SCT090 OVC110 00/M07 A2967 RMK AO2

10-Day Weather Forecast

Almanac

Astronomy

Feb. 09, 2016 Rise Set
Actual Time
Civil Twilight
Nautical Twilight
Astronomical Twilight
Moon
Length of Visible Light
Length of Day
Tomorrow will be .
, % of the Moon is Illuminated

Today's Extremes

State Highs State Lows

Community

WunderPhotos

Upload Photos

1,891,565 photos uploaded!

WunderBlog® & News

Nearby

Air Quality

  Air Quality AQ Index Pollutant
Not available.

Snow Depth

Station Depth Elevation

Earthquake Activity

City Distance Mag. Time & Date
Minimum magnitude displayed is 2.5.

Coastal Water Temperatures

Place Temperature

Stations

Nearby Weather Stations

Station Location Temp. Windchill Dew Point Humidity Wind Precip. Elev Updated Type
                   

Watches & Warnings

Special Statement
Issued: 5:19 AM EST Feb. 9, 2016 – National Weather Service

... Snow showers and snow flurries will continue this morning...

Scattered snow showers and snow flurries will continue this
morning across the region. Additional snow amounts up to 1 inch
are possible with heavier snow bands. Roads may be slick and
covered with snow and ice in spots. Be prepared for slippery
roads and limited visibilities... and use caution while driving.




519 am EST Tue Feb 9 2016

... Snow showers and snow flurries will continue this morning...

Scattered snow showers and snow flurries will continue this
morning across the region. Additional snow amounts up to 1 inch
are possible with heavier snow bands. Roads may be slick and
covered with snow and ice in spots. Be prepared for slippery
roads and limited visibilities... and use caution while driving.